This demonstration page uses our WeatherBlox Daily Observations layout. Learn more.

Left ArrowRight Arrow

39.51506, -84.39828

Hourly Observations for April 16, 2021

Temp ( °F °C ) Dew Point ( °F °C ) Humidity (%) Winds ( mph kmh ) Pressure ( in mb ) Visibility ( mi km ) Precip ( " mm )
12:15 am 00:15 Clear 38 3.4 37 2.7 95 95 Calm 30.04 1017 10 16.0934 0 0
12:35 am 00:35 Clear 36 2.1 35 1.9 99 99 Calm 30.04 1017 10 16.0934 0 0
12:55 am 00:55 Clear 37 2.9 37 2.6 98 98 Calm 30.04 1017 10 16.0934 0 0
1:15 am 01:15 Clear 37 2.9 36 2.4 97 97 Calm 30.04 1017 10 16.0934 0 0
1:35 am 01:35 Clear 37 2.5 36 2.3 99 99 Calm 30.04 1017 10 16.0934 0 0
1:55 am 01:55 Clear 36 2 36 2 100 100 Calm 30.04 1017 10 16.0934 0 0
2:15 am 02:15 Clear 34 1 32 0 93 93 Calm 30.03 1017 10 16.0934 0 0
2:35 am 02:35 Clear 34 1 N/A N/A SW 3 6 30.03 1017 10 16.0934 0 0
2:55 am 02:55 Clear 36 2 N/A N/A Calm 30.03 1017 10 16.0934 0 0
3:15 am 03:15 Clear 34 1 N/A N/A Calm 30.03 1017 10 16.0934 0 0
3:35 am 03:35 Clear 33 0.8 33 0.6 99 99 Calm 30.03 1017 10 16.0934 0 0
3:55 am 03:55 Clear 34 1.2 33 0.8 97 97 Calm 30.02 1017 10 16.0934 0 0
4:15 am 04:15 Clear 34 1.1 34 1 99 99 Calm 30.02 1017 10 16.0934 0 0
4:35 am 04:35 Clear 32 -0.1 31 -0.4 98 98 Calm 30.02 1016 10 16.0934 0 0
4:55 am 04:55 Clear 35 1.4 34 1.2 99 99 W 3 6 30.01 1016 10 16.0934 0 0
5:15 am 05:15 Clear 35 1.7 34 1.1 96 96 Calm 30 1016 10 16.0934 0 0
5:35 am 05:35 Clear 36 2.4 35 1.4 93 93 Calm 30 1016 10 16.0934 0 0
5:55 am 05:55 Clear 32 0 32 0 100 100 Calm 30.01 1016 10 16.0934 0 0
6:15 am 06:15 Clear 32 0 N/A N/A WSW 3 6 30.02 1016 7 11.26538 0 0
6:35 am 06:35 Clear 32 0 N/A N/A Calm 30.02 1016 10 16.0934 0 0
6:55 am 06:55 Clear 33 0.6 31 -0.3 94 94 SW 5 7 30.01 1016 10 16.0934 0 0
7:15 am 07:15 Sunny 33 0.8 33 0.7 99 99 SSW 3 6 30.01 1016 10 16.0934 0 0
7:35 am 07:35 Sunny 34 0.9 33 0.3 96 96 Calm 30.02 1017 10 16.0934 0 0
7:55 am 07:55 Sunny 36 2.3 33 0.8 90 90 Calm 30.02 1017 10 16.0934 0 0
8:15 am 08:15 Sunny 39 3.9 35 1.5 85 85 SSW 3 6 30.01 1016 10 16.0934 0 0
8:35 am 08:35 Sunny 42 5.7 36 2 77 77 W 6 9 30 1016 10 16.0934 0 0
8:55 am 08:55 Sunny 45 7 35 1.8 70 70 NW 7 11 30 1016 10 16.0934 0 0
9:15 am 09:15 Sunny 47 8.5 36 2.4 66 66 N 8 13 29.99 1016 10 16.0934 0 0
9:35 am 09:35 Sunny 48 8.9 36 2.4 64 64 NW 9 15 29.99 1016 10 16.0934 0 0
9:55 am 09:55 Sunny 49 9.3 37 2.5 63 63 NNW 8 13 29.99 1016 10 16.0934 0 0
10:15 am 10:15 Sunny 50 9.9 37 2.6 61 61 NW 10 17 29.99 1016 10 16.0934 0 0
10:35 am 10:35 Partly Cloudy 51 10.5 37 2.5 58 58 NW 12 19 29.99 1015 10 16.0934 0 0
10:55 am 10:55 Partly Cloudy 51 10.4 36 2.2 57 57 NW 8 13 29.99 1016 10 16.0934 0 0
11:15 am 11:15 Partly Cloudy 51 10.6 36 2.4 57 57 N 8 13 29.99 1015 10 16.0934 0 0
11:35 am 11:35 Partly Cloudy 52 11.2 37 2.8 57 57 NNW 14 22 29.99 1015 10 16.0934 0 0
11:55 am 11:55 Mostly Cloudy 52 11 36 2.4 56 56 N 6 9 29.99 1015 10 16.0934 0 0
12:15 pm 12:15 Partly Cloudy 53 11.8 37 3 55 55 NNW 8 13 29.97 1015 10 16.0934 0 0
12:35 pm 12:35 Partly Cloudy 55 12.5 38 3.6 55 55 NNW 12 19 29.96 1015 10 16.0934 0 0
12:55 pm 12:55 Partly Cloudy 56 13.4 39 3.9 53 53 NNW 7 11 29.96 1015 10 16.0934 0 0
1:15 pm 13:15 Partly Cloudy 55 12.9 38 3.4 53 53 WNW 9 15 29.95 1014 10 16.0934 0 0
1:35 pm 13:35 Mostly Cloudy 56 13.5 38 3.6 51 51 NW 10 17 29.94 1014 10 16.0934 0 0
1:55 pm 13:55 Mostly Cloudy 56 13.1 38 3.1 51 51 NNW 7 11 29.93 1014 10 16.0934 0 0
2:15 pm 14:15 Mostly Cloudy 57 13.8 38 3.3 49 49 W 12 19 29.92 1013 10 16.0934 0 0
2:35 pm 14:35 Mostly Cloudy 57 13.8 38 3.2 49 49 WNW 6 9 29.91 1013 10 16.0934 0 0
2:55 pm 14:55 Partly Cloudy 59 14.9 39 3.7 47 47 NW 10 17 29.91 1013 7 11.26538 0 0
3:15 pm 15:15 Sunny 59 15.1 39 3.9 47 47 WNW 6 9 29.91 1013 10 16.0934 0 0
3:35 pm 15:35 Partly Cloudy 61 16 41 4.9 48 48 NW 9 15 29.89 1012 10 16.0934 0 0
3:55 pm 15:55 Partly Cloudy 61 16.1 40 4.3 46 46 WNW 9 15 29.89 1012 10 16.0934 0 0
4:15 pm 16:15 Mostly Cloudy 61 15.9 39 3.9 45 45 WNW 12 19 29.88 1012 10 16.0934 0 0
4:35 pm 16:35 Partly Cloudy 61 15.9 39 4 45 45 WNW 8 13 29.87 1012 10 16.0934 0 0
4:55 pm 16:55 Partly Cloudy 60 15.7 37 2.9 42 42 W 8 13 29.88 1012 10 16.0934 0 0
5:15 pm 17:15 Sunny 60 15.5 38 3.2 44 44 W 8 13 29.89 1012 10 16.0934 0 0
5:35 pm 17:35 Mostly Cloudy 62 16.5 38 3.2 41 41 W 8 13 29.88 1012 10 16.0934 0 0
5:55 pm 17:55 Partly Cloudy 61 16.3 38 3.1 41 41 NNW 7 11 29.88 1012 10 16.0934 0 0
6:15 pm 18:15 Sunny 60 15.5 38 3.5 45 45 WNW 9 15 29.9 1012 10 16.0934 0 0
6:35 pm 18:35 Partly Cloudy 60 15.3 37 3 44 44 WNW 7 11 29.89 1012 10 16.0934 0 0
6:55 pm 18:55 Partly Cloudy 59 15.1 37 2.7 44 44 NW 8 13 29.89 1012 10 16.0934 0 0
7:15 pm 19:15 Partly Cloudy 59 14.9 38 3.2 46 46 NW 8 13 29.89 1012 10 16.0934 0 0
7:35 pm 19:35 Partly Cloudy 58 14.3 38 3.2 47 47 WNW 8 13 29.9 1012 10 16.0934 0 0
7:55 pm 19:55 Sunny 56 13.3 38 3.3 51 51 WNW 6 9 29.89 1012 10 16.0934 0 0
8:15 pm 20:15 Partly Cloudy 56 13.3 39 3.8 53 53 W 5 7 29.9 1013 10 16.0934 0 0
8:35 pm 20:35 Partly Cloudy 53 11.4 41 5.1 65 65 W 5 7 29.91 1013 10 16.0934 0 0
8:55 pm 20:55 Mostly Cloudy 50 10 41 5 71 71 WNW 3 6 29.92 1013 10 16.0934 0 0
9:15 pm 21:15 Clear 49 9.2 42 5.3 77 77 WNW 5 7 29.92 1013 10 16.0934 0 0
9:35 pm 21:35 Partly Cloudy 49 9.2 41 5.2 76 76 WNW 5 7 29.92 1013 10 16.0934 0 0
9:55 pm 21:55 Partly Cloudy 45 7.4 42 5.8 90 90 Calm 29.94 1014 10 16.0934 0 0
10:15 pm 22:15 Partly Cloudy 46 7.9 43 5.9 87 87 Calm 29.93 1014 10 16.0934 0 0
10:35 pm 22:35 Clear 46 7.8 42 5.5 86 86 Calm 29.93 1014 10 16.0934 0 0
10:55 pm 22:55 Clear 45 7.3 41 4.8 84 84 Calm 29.94 1014 10 16.0934 0 0
11:15 pm 23:15 Clear 46 8 43 6 87 87 Calm 29.93 1014 10 16.0934 0 0
11:35 pm 23:35 Clear 45 7 41 5.2 88 88 NNW 3 6 29.93 1013 10 16.0934 0 0
11:55 pm 23:55 Clear 44 6.6 41 4.9 89 89 NE 5 7 29.93 1013 10 16.0934 0 0

Powered by AerisWeather